Arden, NC

6:34 AM EST on February 24, 2017 (GMT -0500)
Asheville Regional

Weather History for KAVL - October, 2011

Change the Weather History Date:

Monday, October 3, 2011

  Actual Average Record
Temperature  
Mean Temperature 50 °F 60 °F  
Max Temperature 66 °F 72 °F 88 °F (1954)
Min Temperature 34 °F 49 °F 23 °F (1895)
Degree Days  
Heating Degree Days 15 5  
Month to date heating degree days 48 15  
Since 1 July heating degree days 86 72  
Cooling Degree Days 0 1  
Month to date cooling degree days 0 3  
Year to date cooling degree days 1201 855  
Moisture  
Dew Point 35 °F    
Average Humidity 63    
Maximum Humidity 96    
Minimum Humidity 30    
Precipitation  
Precipitation 0.00 in 0.11 in 2.23 in (2015)
Month to date precipitation T 0.32  
Year to date precipitation 33.22 35.74  
Snow  
Snow 0.00 in 0.00 in 0.00 in ()
Month to date snowfall 0.0 0.0  
Since 1 July snowfall 0.0 0.0  
Since 1 September snowfall 0.0 0.0  
Snow Depth 0.00 in    
Sea Level Pressure  
Sea Level Pressure 30.13 in    
Wind  
Wind Speed 5 mph (NNW)    
Max Wind Speed 16 mph    
Max Gust Speed 24 mph    
Visibility 10 miles    
Events      
T = Trace of Precipitation, MM = Missing Value Source: NWS Daily Summary

Daily Weather History Graph

Daily Weather History Graph

Search for Another Location

Airport or City:

Trip Planner

Search our weather history database for the weather conditions in past years. The results will help you decide how hot, cold, wet, or windy it might be!

Date:

Astronomy

Oct. 03, 2011 Rise Set
Actual Time 7:26 AM EDT 7:11 PM EDT
Civil Twilight 7:01 AM EDT 7:36 PM EDT
Nautical Twilight 6:31 AM EDT 8:06 PM EDT
Astronomical Twilight 6:01 AM EDT 8:35 PM EDT
Moon 2:12 PM EDT (10/3) No Moon Set
Length of Visible Light 12h 35m
Length of Day
11h 45m
Waxing Crescent, 45% of the Moon is Illuminated
Oct 3
Waxing Crescent
Oct 3
First Quarter
Oct 11
Full
Oct 19
Last Quarter
Oct 26
New

Hourly Weather History & Observations

Time (EDT) Temp. Windchill Dew Point Humidity Pressure Visibility Wind Dir Wind Speed Gust Speed Precip Events Conditions
12:54 AM 37.9 °F - 35.1 °F 89% 30.09 in 10.0 mi Calm Calm - N/A   Clear
1:54 AM 37.0 °F 34.5 °F 35.1 °F 93% 30.09 in 10.0 mi South 3.5 mph - N/A   Clear
2:54 AM 37.0 °F - 35.1 °F 93% 30.08 in 10.0 mi Calm Calm - N/A   Clear
3:54 AM 36.0 °F - 34.0 °F 93% 30.07 in 10.0 mi Calm Calm - N/A   Clear
4:54 AM 34.0 °F - 32.0 °F 92% 30.08 in 10.0 mi Calm Calm - N/A   Clear
5:54 AM 35.1 °F - 33.1 °F 92% 30.10 in 10.0 mi Calm Calm - N/A   Clear
6:54 AM 37.9 °F - 34.0 °F 86% 30.10 in 10.0 mi Calm Calm - N/A   Clear
7:54 AM 35.1 °F - 33.1 °F 92% 30.14 in 10.0 mi Calm Calm - N/A   Clear
8:54 AM 42.1 °F - 37.0 °F 82% 30.15 in 10.0 mi Calm Calm - N/A   Clear
9:54 AM 53.1 °F - 36.0 °F 52% 30.14 in 10.0 mi NW 10.4 mph - N/A   Clear
10:54 AM 57.0 °F - 33.1 °F 40% 30.14 in 10.0 mi North 11.5 mph - N/A   Clear
11:54 AM 59.0 °F - 33.1 °F 38% 30.15 in 10.0 mi North 15.0 mph 18.4 mph N/A   Clear
12:54 PM 61.0 °F - 34.0 °F 36% 30.16 in 10.0 mi NW 13.8 mph 19.6 mph N/A   Clear
1:54 PM 62.6 °F - 32.0 °F 32% 30.15 in 10.0 mi North 10.4 mph 19.6 mph N/A   Clear
2:54 PM 64.0 °F - 32.0 °F 30% 30.11 in 10.0 mi North 8.1 mph - N/A   Clear
3:54 PM 64.4 °F - 33.8 °F 32% 30.12 in 10.0 mi North 8.1 mph 17.3 mph N/A   Clear
4:54 PM 64.9 °F - 32.0 °F 29% 30.11 in 10.0 mi North 10.4 mph - N/A   Clear
5:54 PM 64.4 °F - 33.8 °F 32% 30.14 in 10.0 mi NNW 10.4 mph - N/A   Clear
6:54 PM 61.0 °F - 37.0 °F 41% 30.14 in 10.0 mi North 8.1 mph - N/A   Clear
7:54 PM 55.9 °F - 39.0 °F 53% 30.18 in 10.0 mi Calm Calm - N/A   Clear
8:54 PM 53.1 °F - 39.9 °F 61% 30.19 in 10.0 mi Calm Calm - N/A   Clear
9:54 PM 50.0 °F - 41.0 °F 71% 30.19 in 10.0 mi NNW 6.9 mph - N/A   Clear
10:54 PM 48.9 °F - 41.0 °F 74% 30.20 in 10.0 mi North 4.6 mph - N/A   Clear
11:54 PM 46.9 °F - 39.9 °F 77% 30.20 in 10.0 mi NNW 5.8 mph - N/A   Clear